Voltar ao catálogo

HULIANWANG DIGUI-103

AtivoComunicaçõesLEO
NORAD 66419·PAYLOAD·🇨🇳 China

Lançado Nov 10, 2025 de Wenchang Space Launch Site

Loading…

Próximas Passagens (próximas 24 horas)

TLE

AtualizadoSource: Space-Track

Época: Sep 14, 2026, 13:38 UTC

1 66419U 25258H   26257.56864734 -.00000080  00000-0  95356-4 0  9994
2 66419  50.0027 334.7482 0000279 126.3342 233.7556 13.29329746 41622

Acompanhe HULIANWANG DIGUI-103 em tempo real com AllMySat

Download on the App Store